Flag for U.S.A. Weather past 2 weeks in Paramus, New Jersey, U.S.A.

Now
54 °F

Clear.


Feels Like: 54 °F
Forecast: 53 / 72 °F
Wind: 3 mph from North

Location: Teterboro Airport

Current Time: Sep 17, 2014 at 5:49:00 AM

Latest Report: Sep 17, 2014 at 4:51 AM


Visibility: 10 mi

Pressure: 30.02 "Hg

Humidity: 80%

Dew point: 48 °F

Location of ParamusLocation

Historic Weather in Paramus — Graph

°F

Paramus temperature yesterday

Maximum temperature yesterday: 71 °F (at 1:51 PM)
Minimum temperature yesterday: 57 °F (at 8:51 AM)
Average temperature yesterday: 63 °F

Past Weeks' High & Low Weather Summary

 TemperatureHumidityPressure
High94 °F (Sep 6, 2:51 PM)94% (Sep 13, 6:58 PM)30.31 "Hg (Sep 13, 6:58 PM)
Low50 °F (Sep 15, 4:51 AM)27% (Sep 3, 5:51 PM)29.78 "Hg (Sep 2, 10:51 PM)
Average71 °F62%30.07 "Hg
* Reported Sep 2 4:51 AM — Sep 17 4:51 AM, Paramus, Weather by CustomWeather, © 2014

Note: Actual official high and low records may vary slightly from our data, if they occured in-between our weather recording intervals... More about our weather records

Advertising

Paramus weather history for previous 24 hours

 ConditionsComfort  
Time TempWeatherWind HumidityBarometerVisibility
4:51 AM
Sep 17
54 °FClear.3 mph80%30.02 "Hg10 mi
3:51 AM55 °FClear.No wind80%30.02 "Hg10 mi
2:51 AM56 °FClear.3 mph77%30.02 "Hg10 mi
1:51 AM57 °FClear.No wind78%30.02 "Hg10 mi
12:51 AM60 °FClear.No wind69%30.02 "Hg10 mi
11:51 PM
Sep 16
61 °FClear.No wind70%30.01 "Hg10 mi
10:51 PM62 °FPassing clouds.3 mph67%30.01 "Hg10 mi
9:51 PM64 °FPassing clouds.3 mph63%30.00 "Hg10 mi
8:51 PM65 °FOvercast.No wind63%30.00 "Hg10 mi
7:51 PM66 °FSunny.No wind56%29.98 "Hg10 mi
6:51 PM67 °FPassing clouds.8 mph55%29.97 "Hg10 mi
5:51 PM70 °FScattered clouds.8 mph47%29.96 "Hg10 mi
4:51 PM71 °FOvercast.8 mph47%29.95 "Hg10 mi
3:51 PM71 °FOvercast.No wind47%29.95 "Hg10 mi
2:51 PM70 °FMore clouds than sun.No wind57%29.95 "Hg10 mi
1:51 PM71 °FBroken clouds.No wind57%29.96 "Hg10 mi
12:51 PM67 °FSunny.No wind71%29.98 "Hg10 mi
11:51 AM64 °FFog.3 mph81%29.99 "Hg5 mi
10:51 AM60 °FLight rain. Fog.No wind86%30.00 "Hg3 mi
9:51 AM58 °FLight rain. Fog.6 mph90%30.02 "Hg4 mi
8:51 AM57 °FLight rain. Fog.6 mph90%30.02 "Hg3 mi
7:51 AM58 °FLight rain. More clouds than sun.5 mph84%30.00 "Hg5 mi
6:51 AM59 °FMostly cloudy.No wind81%29.98 "Hg10 mi
5:51 AM59 °FPassing clouds.3 mph78%29.98 "Hg10 mi
Weather by CustomWeather, © 2014

See weather overviewHow to use our weather pages